Volver al catálogo

SMS 1

ActivoMeteoGEO
NORAD 7298·PAYLOAD·🇺🇸 United States

Lanzado May 17, 1974 desde Cape Canaveral Space Force Station

Loading…

TLE

ActualizadoSource: Space-Track

Época: Sep 14, 2026, 06:59 UTC

1 07298U 74033A   26257.29102439 -.00000168  00000-0  00000-0 0  9991
2 07298   3.9341 244.6165 0014478  75.4237 143.1938  0.98614683120768

Sigue SMS 1 en tiempo real con AllMySat

Download on the App Store